Change the Weather History Date:

Tuesday, January 2, 2007

  Actual Average Record
Temperature  
Mean Temperature 20 °F 26 °F  
Max Temperature 40 °F 40 °F 70 °F (1997)
Min Temperature 0 °F 13 °F -26 °F (1942)
Degree Days  
Heating Degree Days 45 39  
Month to date heating degree days 96 78  
Since 1 July heating degree days 2908 2850  
Cooling Degree Days 0 0  
Month to date cooling degree days 0 0  
Year to date cooling degree days 0 0  
Moisture  
Dew Point 15 °F    
Average Humidity 72    
Maximum Humidity 91    
Minimum Humidity 53    
Precipitation  
Precipitation 0.00 in 0.02 in 0.65 in (1907)
Month to date precipitation 0.00 0.03  
Year to date precipitation 0.00 0.03  
Snow  
Snow 0.00 in 0.20 in 4.00 in (1907)
Month to date snowfall 0.0 0.4  
Since 1 July snowfall 14.5 16.4  
Snow Depth 6.00 in    
Sea Level Pressure  
Sea Level Pressure 30.18 in    
Wind  
Wind Speed 7 mph (NW)    
Max Wind Speed 22 mph    
Max Gust Speed 28 mph    
Visibility 10 miles    
Events      
T = Trace of Precipitation, MM = Missing Value Source: NWS Daily Summary

Daily Weather History Graph

Daily Weather History Graph

Search for Another Location

Airport or City:

Trip Planner

Search our weather history database for the weather conditions in past years. The results will help you decide how hot, cold, wet, or windy it might be!

Date:

Astronomy

Jan. 02, 2007 Rise Set
Actual Time 7:22 AM MST 4:34 PM MST
Civil Twilight 6:50 AM MST 5:06 PM MST
Nautical Twilight 6:15 AM MST 5:41 PM MST
Astronomical Twilight 5:41 AM MST 6:15 PM MST
Moon 3:30 PM MST (1/2) 6:59 AM MST (1/2)
Length of Visible Light 10h 15m
Length of Day
9h 12m
Waxing Gibbous, 99% of the Moon is Illuminated
Jan 2
Waxing Gibbous
Jan 3
Full
Jan 11
Last Quarter
Jan 18
New
Jan 25
First Quarter

Hourly Weather History & Observations

Time (MST) Temp. Windchill Dew Point Humidity Pressure Visibility Wind Dir Wind Speed Gust Speed Precip Events Conditions
12:54 AM 5.0 °F - 1.9 °F 87% 30.32 in 10.0 mi Calm Calm - N/A   Clear
1:54 AM 3.9 °F -6.9 °F 1.9 °F 91% 30.33 in 9.0 mi NNW 5.8 mph - N/A   Clear
2:54 AM 9.0 °F -2.2 °F 3.9 °F 80% 30.31 in 10.0 mi NNW 6.9 mph - N/A   Clear
3:54 AM 10.0 °F -1.9 °F 6.1 °F 84% 30.30 in 10.0 mi NW 8.1 mph - N/A   Clear
4:54 AM 10.4 °F -0.4 °F 5.0 °F 79% 30.11 in 10.0 mi NW 6.9 mph - N/A   Clear
5:54 AM 7.0 °F -3.3 °F 3.9 °F 87% 30.31 in 10.0 mi NNW 5.8 mph - N/A   Clear
6:54 AM 3.9 °F -10.4 °F 1.9 °F 91% 30.31 in 10.0 mi NNW 9.2 mph - N/A   Clear
7:54 AM 3.0 °F -8.0 °F -0.9 °F 84% 30.32 in 9.0 mi NW 5.8 mph - N/A   Clear
8:54 AM 14.0 °F 3.9 °F 8.1 °F 77% 30.31 in 10.0 mi NNW 6.9 mph - N/A   Clear
9:54 AM 19.0 °F 12.3 °F 10.9 °F 71% 30.31 in 10.0 mi NNW 4.6 mph - N/A   Clear
10:54 AM 24.1 °F - 12.9 °F 62% 30.27 in 10.0 mi Calm Calm - N/A   Clear
11:54 AM 32.0 °F - 17.1 °F 54% 30.22 in 10.0 mi Calm Calm - N/A   Clear
12:54 PM 32.0 °F 26.4 °F 21.9 °F 66% 30.17 in 10.0 mi NW 5.8 mph - N/A   Clear
1:54 PM 39.0 °F 29.3 °F 24.1 °F 55% 30.12 in 10.0 mi WNW 19.6 mph 25.3 mph N/A   Clear
2:54 PM 37.0 °F 27.7 °F 25.0 °F 62% 30.11 in 10.0 mi West 16.1 mph - N/A   Clear
3:54 PM 36.0 °F 28.0 °F 25.0 °F 64% 30.12 in 10.0 mi West 11.5 mph - N/A   Clear
4:54 PM 36.0 °F 28.5 °F 25.0 °F 64% 30.11 in 10.0 mi West 10.4 mph - N/A   Clear
5:54 PM 34.0 °F 28.0 °F 24.1 °F 67% 30.12 in 10.0 mi West 6.9 mph - N/A   Clear
6:54 PM 30.9 °F 23.5 °F 23.0 °F 72% 30.13 in 10.0 mi NW 8.1 mph - N/A   Clear
7:54 PM 33.1 °F 30.0 °F 23.0 °F 66% 30.12 in 10.0 mi Variable 3.5 mph - N/A   Clear
8:54 PM 34.0 °F 31.0 °F 23.0 °F 64% 30.06 in 10.0 mi SW 3.5 mph - N/A   Clear
9:54 PM 37.0 °F 29.8 °F 24.1 °F 59% 30.02 in 10.0 mi West 10.4 mph - N/A   Clear
10:54 PM 35.1 °F 27.4 °F 24.1 °F 64% 29.99 in 10.0 mi WNW 10.4 mph - N/A   Clear
11:54 PM 34.0 °F 28.0 °F 24.1 °F 67% 29.94 in 10.0 mi West 6.9 mph - N/A   Clear